Weather Roundup
Issued by NWS Chicago, IL

Home | Current Version | Previous Version | Graphics & Text | Print | Product List | Glossary On
Versions: 1 2 3 4 5 6 7 8 9 10 11 12 13 14 15 16 17 18 19 20 21 22 23 24 25 26 27 28 29 30 31 32 33 34 35 36 37 38 39 40 41 42 43 44 45 46 47 48 49 50
000
NZUS59 KLOT 112208
HRRLOT

CHICAGO AREA WEATHER ROUNDUP
NATIONAL WEATHER SERVICE CHICAGO/ROMEOVILLE IL
400 PM CST MON DEC 11 2017

NOTE: "FAIR" INDICATES FEW OR NO CLOUDS BELOW 12,000 FEET WITH NO
SIGNIFICANT WEATHER AND/OR OBSTRUCTIONS TO VISIBILITY.

* THESE STATIONS ARE NOT UNDER NWS QUALITY CONTROL. THEY ALSO MAY NOT
  REPORT WEATHER SUCH AS PRECIPITATION OR FOG.

ILZ005-006-012>014-019>023-112300-
NORTHEAST ILLINOIS

CITY           SKY/WX    TMP DP  RH WIND       PRES   REMARKS
OHARE          CLOUDY    37  25  61 N8        29.69R
MIDWAY         CLOUDY    38  27  64 NE3       29.69R
AURORA         CLOUDY    36  27  69 N6        29.70R
LANSING*       CLOUDY    36  28  73 E6        29.68R
JOLIET*        PTCLDY    40  29  64 E3        29.68R
WAUKEGAN       SNOW      30  30 100 SW3       29.69F VSB 1/4
DUPAGE AIRPORT CLOUDY    36  28  73 N8        29.69R
WHEELING       CLOUDY    36  27  69 N6        29.72R
KANKAKEE*      CLOUDY    40  27  59 E9        29.65S
MORRIS*        CLOUDY    38  27  64 NE3       29.67R
LEWIS AIRPORT* CLOUDY    37  27  67 NE7       29.69R
NORTHERLY ISL    N/A     36  27  70 E1          N/A
$$

WIZ051-052-058>065-066-070>072-112300-
SOUTHEAST WISCONSIN

CITY           SKY/WX    TMP DP  RH WIND       PRES   REMARKS
MILWAUKEE      CLOUDY    33  27  78 NW7       29.72R WCI  27
KENOSHA*       CLOUDY    32  27  81 CALM      29.70R HAZE
RACINE*        MOCLDY    32  28  85 CALM      29.72R
BURLINGTON     MOCLDY    39  39 100 NW7       29.72R
WAUKESHA       CLOUDY    30  25  80 W8        29.73R WCI  23
WEST BEND      MOCLDY    32  27  80 NW7       29.72R WCI  26
$$

INZ001>003-010>013-019-020-112300-
NORTHWEST INDIANA

CITY           SKY/WX    TMP DP  RH WIND       PRES   REMARKS
GARY*          CLOUDY    39  25  56 SE6       29.69R
MICHIGAN CITY* NOT AVBL
RENSSELAER*    NOT AVBL
VALPARAISO     CLOUDY    34  27  75 E7        29.69R WCI  28
$$

LMZ740>746-112300-
SOUTHERN LAKE MICHIGAN

STATION/POSITION TIME  SKY/WX   TEMP WIND        PRES    VSBY
                                AIR  DIR/SP/G
                 (UTC)          (F)  (DEG/KT/KT) (MB)    (MI)
HARRISON CRIB    2140            38  170/  2/  3   N/A
BURNHAM HARBOR   2200            36   50/  2/  6   N/A
CALUMET HARBOR   2130            38   CALM  /  2 1004.7R
BURNS HARBOR     2140            36  130/  3/ 11 1005.8R
MICHIGAN CITY    2140            33  110/  6/  7   N/A
$$

ABBREVIATIONS USED IN REMARKS
   TC - TEMPERATURE IN CELSIUS
  WCI - WIND CHILL INDEX
   HX - HEAT INDEX
  VSB - VISIBILITY
$$




USA.gov is the U.S. government's official web portal to all federal, state and local government web resources and services.